ES'HAIL 1

Last updated on Thu Jul 03 2025 00:02:46 GMT+0000 (Coordinated Universal Time)

1 39233U 13044A 25183.14334907 .00000149 00000+0 00000+0 0 9994 2 39233 0.0496 343.2456 0002236 114.8207 259.4951 1.00275440 43111
UTC large
Height (km)
Speed (km/s)
/
Latitude / Longitude
Inclination (degrees)
Orbital Period (minutes)
Azimuth
Elevation
Range (km)
Doppler Factor

Next 0 passes for location: London (51.5072 / 0.1276)

Sorry there are no passes over London.